[[{"header":{"parameterUnit":"m.s-1","parameterCategory":2,"la1":30.2991,"la2":30.254,"lo1":-89.0895,"lo2":-89.0444,"dy":0.0017,"dx":0.0017,"nx":28,"ny":28,"refTime":"2025-03-17T21:00:00:Z","depth":"0","parameterNumber":2,"parameterNumberName":"U-component_of_CURRENTS"},"data":[0,0,0,0,0,0,0,0,0,0,0,0,0,0,0,0,0,0,0,0,0,0,0,0,0,0,0,0,0,0,0,0,0,0,0,0,0,0,0,0,0,0,0,0,0,0,0,0,0,0,0,0,0,0,0,0,0,0,0.2247,0.2247,0,0.2244,0.2244,0.2244,0.2224,0.2223,0.2223,0.2222,0.2247,0.2248,0.2249,0,0,0,0,0,0,0,0,0,0,0,0,0,0.226,0.226,0.2247,0.2247,0.2247,0.2244,0.2244,0.2244,0.2224,0.2223,0.2223,0.2222,0.2246,0.2248,0.2249,0,0,0,0,0,0,0,0,0,0,0,0,0,0.2254,0.226,0.2247,0.2238,0.2237,0.2244,0.2244,0.2244,0.2224,0.2223,0.2223,0.2222,0.2246,0.2248,0.2249,0.2269,0,0,0.2254,0.2254,0,0,0,0,0,0,0,0,0.2254,0.2253,0.2239,0.2239,0.2238,0.2235,0.2257,0.2254,0.2224,0.2227,0.2222,0.2222,0.2247,0.2248,0.2246,0.227,0.2271,0.2254,0.2255,0.2255,0.2256,0,0,0,0,0,0,0,0.2255,0.2254,0.2245,0.2239,0.2239,0.2242,0.224,0.2256,0.224,0.2227,0.2226,0.2228,0.2246,0.2245,0.2247,0.2272,0.2254,0.2255,0.2256,0.2256,0.2302,0.2302,0,0,0,0,0,0,0.2257,0.2254,0.2245,0.2245,0.2246,0.2242,0.224,0.2235,0.2239,0.2239,0.2228,0.2227,0.2243,0.2245,0.2248,0.2269,0.2255,0.2257,0.2257,0.2302,0.2302,0.2303,0,0,0,0,0,0,0.2257,0.2256,0.2245,0.2251,0.225,0.2243,0.2237,0.2235,0.2232,0.224,0.224,0.2226,0.2242,0.2246,0.2253,0.227,0.2257,0.2259,0.2301,0.2302,0.2302,0.2313,0,0,0,0,0,0,0.2258,0.2256,0.2254,0.2251,0.2249,0.2248,0.2238,0.2236,0.2235,0.2233,0.2238,0.224,0.2242,0.2251,0.2254,0.2271,0.226,0.2301,0.2302,0.2302,0.2312,0.2314,0.2315,0,0,0,0,0,0.2258,0.2256,0.2254,0.2253,0.2247,0.2249,0.2248,0.2241,0.2235,0.2235,0.2233,0.224,0.2257,0.2252,0.2256,0.2274,0.2301,0.2301,0.2302,0.2312,0.2314,0.2315,0,0,0,0,0,0,0.226,0.2254,0.2252,0.2247,0.2249,0.2246,0.2247,0.2243,0.2241,0.224,0.2242,0.2243,0.2257,0.2263,0.2256,0.2288,0.2282,0.2283,0.2288,0.229,0.2291,0.2292,0.2261,0,0,0,0,0,0.2262,0.2258,0.2256,0.2254,0.2255,0.2252,0.2253,0.2249,0.2247,0.2245,0.2248,0.2255,0.2265,0.2273,0.2281,0.23,0.2332,0.2315,0.2316,0.2318,0.2321,0.2391,0.2399,0.2305,0.2305,0.2305,0,0,0.2263,0.226,0.2257,0.2255,0.2255,0.2258,0.225,0.2253,0.2255,0.2251,0.2255,0.226,0.2269,0.2285,0.2293,0.2292,0.236,0.2319,0.232,0.2322,0.2393,0.2402,0.2411,0.2305,0.2305,0.2305,0,0,0.2265,0.2261,0.2259,0.2261,0.2264,0.2265,0.2266,0.2264,0.2263,0.2269,0.2266,0.2278,0.2292,0.2302,0.231,0.2327,0.2363,0.2332,0.2346,0.2413,0.2422,0.243,0.248,0.2492,0.2336,0.2336,0.2336,0,0.2268,0.2262,0.2261,0.2262,0.2264,0.2268,0.2269,0.2274,0.2274,0.2282,0.2272,0.2303,0.2302,0.2335,0.2329,0.2332,0.2372,0.2338,0.2417,0.2426,0.2434,0.2483,0.2497,0.2337,0.2337,0.2337,0.2337,0,0.2267,0.2266,0.2267,0.2269,0.2272,0.2275,0.2282,0.2289,0.229,0.23,0.2327,0.233,0.2355,0.2353,0.2341,0.2397,0.2407,0.241,0.2416,0.2445,0.2494,0.2508,0.2338,0.2338,0.2337,0.2337,0,0,0.226,0.2265,0.2264,0.2262,0.2274,0.2272,0.229,0.2306,0.2333,0.2337,0.2379,0.2375,0.2391,0.24,0.2401,0.244,0.2516,0.2445,0.2449,0.2499,0.2666,0.259,0.2599,0.2544,0.2547,0.2549,0.2676,0,0.2258,0.2257,0.2263,0.2264,0.2262,0.2276,0.2298,0.2318,0.2346,0.2393,0.241,0.2454,0.2409,0.2437,0.2466,0.2519,0.2555,0.2481,0.2626,0.263,0.2564,0.2613,0.2522,0.262,0.269,0.2692,0.2694,0,0.2246,0.2248,0.2247,0.226,0.2263,0.2271,0.2309,0.2334,0.2405,0.2436,0.2484,0.2519,0.2576,0.254,0.2641,0.2603,0.2626,0.2653,0.2659,0.2595,0.2581,0.2603,0.2643,0.2599,0.2716,0.2714,0.2713,0,0.2222,0.223,0.2226,0.2228,0.2253,0.226,0.2283,0.2344,0.2386,0.2484,0.2544,0.2613,0.2671,0.2723,0.2755,0.2724,0.2871,0.2845,0.2794,0.2789,0.274,0.2726,0.2757,0.291,0.291,0.291,0.2909,0,0.2206,0.2199,0.2214,0.2209,0.2221,0.2248,0.2289,0.2332,0.2429,0.2498,0.2572,0.2644,0.2722,0.2805,0.2817,0.2854,0.293,0.2807,0.2823,0.2738,0.2722,0.2702,0.2673,0.2914,0.2913,0.2912,0.2912,0,0.2172,0.2182,0.2175,0.2197,0.2205,0.2214,0.2281,0.2328,0.2427,0.2532,0.2576,0.2706,0.2809,0.2872,0.2973,0.2933,0.2881,0.2965,0.2844,0.284,0.2705,0.2679,0.2468,0.2416,0.2938,0.2937,0.2936,0,0.2151,0.2146,0.2157,0.2157,0.2163,0.2189,0.2221,0.2312,0.2375,0.2554,0.2609,0.2751,0.2821,0.2944,0.2928,0.2963,0.2851,0.2876,0.2772,0.2693,0.2679,0.2433,0.2388,0.2726,0.2723,0.2721,0.2719,0,0.2113,0.2118,0.2116,0.2127,0.214,0.216,0.2216,0.2263,0.2392,0.2486,0.2612,0.2691,0.2805,0.2799,0.2838,0.2837,0.2703,0.2829,0.2804,0.2554,0.2235,0.2195,0.264,0.2701,0.2703,0.2704,0.2705,0.2706,0.2083,0.2073,0.2081,0.2086,0.2105,0.2123,0.2124,0.22,0.228,0.2394,0.2524,0.2588,0.2678,0.2709,0.2702,0.2627,0.2534,0.2547,0.2539,0.2307,0.2181,0.2557,0.2589,0.259,0.2591,0.2592,0.2593,0,0.2037,0.2037,0.2042,0.2041,0.2044,0.207,0.2114,0.2107,0.2152,0.2262,0.2343,0.2419,0.2431,0.2486,0.2467,0.2378,0.2201,0.2317,0.2012,0.2006,0.2433,0.2353,0.2265,0.2265,0.2266,0.2266,0.2266,0.2266,0.2012,0.1994,0.1998,0.198,0.1981,0.1952,0.1952,0.1951,0.1993,0.2027,0.2055,0.2126,0.2258,0.2263,0.2219,0.219,0.2006,0.1804,0.1828,0.2224,0.2245,0.2265,0.2185,0.2063,0.2062,0.1276,0.127,0.1266]},{"header":{"parameterUnit":"m.s-1","parameterCategory":2,"la1":30.2991,"la2":30.254,"lo1":-89.0895,"lo2":-89.0444,"dy":0.0017,"dx":0.0017,"nx":28,"ny":28,"refTime":"2025-03-17T21:00:00:Z","depth":"0","parameterNumber":3,"parameterNumberName":"V-component_of_CURRENTS"},"data":[0,0,0,0,0,0,0,0,0,0,0,0,0,0,0,0,0,0,0,0,0,0,0,0,0,0,0,0,0,0,0,0,0,0,0,0,0,0,0,0,0,0,0,0,0,0,0,0,0,0,0,0,0,0,0,0,0,0,0.0386,0.0386,0,0.0374,0.0374,0.0374,0.0359,0.0359,0.0358,0.0358,0.0338,0.0338,0.0337,0,0,0,0,0,0,0,0,0,0,0,0,0,0.0378,0.0378,0.0386,0.0386,0.0386,0.0374,0.0374,0.0374,0.0359,0.0359,0.0358,0.0358,0.0338,0.0338,0.0337,0,0,0,0,0,0,0,0,0,0,0,0,0,0.0375,0.0378,0.0386,0.0377,0.0377,0.0374,0.0374,0.0374,0.0359,0.0359,0.0358,0.0358,0.0338,0.0338,0.0337,0.034,0,0,0.0336,0.0335,0,0,0,0,0,0,0,0,0.0375,0.0375,0.0379,0.0378,0.0377,0.0368,0.0364,0.0362,0.0359,0.0365,0.0358,0.0358,0.0348,0.0347,0.0344,0.0339,0.0338,0.0336,0.0335,0.0335,0.0335,0,0,0,0,0,0,0,0.0375,0.0375,0.0381,0.0379,0.0378,0.0368,0.0367,0.0363,0.0358,0.0365,0.0364,0.0363,0.0347,0.0345,0.0344,0.0338,0.0336,0.0335,0.0335,0.0335,0.0346,0.0347,0,0,0,0,0,0,0.0379,0.0376,0.0382,0.0381,0.0376,0.0368,0.0368,0.0371,0.0358,0.0356,0.0363,0.0362,0.0346,0.0344,0.0343,0.0358,0.0335,0.0335,0.0334,0.0345,0.0346,0.0347,0,0,0,0,0,0,0.0379,0.038,0.0382,0.0378,0.0378,0.0369,0.0373,0.0371,0.037,0.0357,0.0355,0.0364,0.0346,0.0344,0.0349,0.0357,0.0334,0.0334,0.0345,0.0346,0.0346,0.038,0,0,0,0,0,0,0.0379,0.038,0.0384,0.0379,0.0378,0.0385,0.0373,0.0371,0.037,0.0369,0.0358,0.0355,0.0345,0.035,0.0348,0.0356,0.0333,0.0344,0.0345,0.0346,0.0378,0.0382,0.0385,0,0,0,0,0,0.0379,0.0388,0.0385,0.0385,0.0384,0.0386,0.0385,0.0377,0.0371,0.0374,0.037,0.0356,0.0356,0.035,0.0348,0.0355,0.0343,0.0345,0.0346,0.0377,0.0381,0.0385,0,0,0,0,0,0,0.0385,0.0387,0.0383,0.0392,0.039,0.0383,0.0386,0.038,0.0379,0.0379,0.0365,0.0363,0.037,0.036,0.0354,0.0362,0.0346,0.0348,0.037,0.0375,0.0378,0.0387,0.0333,0,0,0,0,0,0.039,0.0397,0.0394,0.0401,0.0402,0.0395,0.0394,0.0389,0.0387,0.0386,0.038,0.0375,0.0374,0.0373,0.037,0.0376,0.0366,0.0379,0.0382,0.0385,0.0392,0.0393,0.0398,0.0351,0.0351,0.0351,0,0,0.0393,0.0395,0.0399,0.0403,0.0401,0.0411,0.0394,0.0397,0.0406,0.0385,0.0397,0.0387,0.0379,0.0386,0.0388,0.0379,0.0392,0.0387,0.039,0.0395,0.0395,0.04,0.0404,0.0352,0.0352,0.0352,0,0,0.0408,0.0407,0.042,0.0423,0.0424,0.0422,0.0425,0.0422,0.0422,0.0432,0.042,0.0418,0.0416,0.0412,0.041,0.0432,0.0411,0.0428,0.0453,0.0454,0.0458,0.0461,0.0447,0.0449,0.0429,0.0429,0.0429,0,0.0412,0.0429,0.0423,0.0436,0.0444,0.0431,0.0448,0.0447,0.0447,0.0455,0.0441,0.0446,0.043,0.0445,0.0447,0.044,0.0433,0.0436,0.0459,0.0462,0.0465,0.0449,0.0451,0.0431,0.0431,0.0431,0.043,0,0.0438,0.0452,0.046,0.0475,0.0481,0.0493,0.0494,0.05,0.0497,0.0498,0.051,0.0493,0.0498,0.0487,0.0471,0.0485,0.047,0.0463,0.0448,0.0471,0.0454,0.0455,0.0434,0.0433,0.0432,0.0432,0,0,0.0453,0.0475,0.0478,0.0496,0.0505,0.0515,0.0532,0.0549,0.0574,0.056,0.0594,0.0569,0.056,0.0556,0.0536,0.0527,0.0527,0.0503,0.0502,0.0489,0.0521,0.0505,0.0505,0.0525,0.0525,0.0526,0.0497,0,0.0478,0.0514,0.0517,0.0554,0.0575,0.0573,0.0596,0.0607,0.0616,0.0645,0.0623,0.0648,0.0588,0.0601,0.0578,0.0555,0.0533,0.0535,0.05,0.0499,0.0483,0.0507,0.0555,0.0534,0.0498,0.0498,0.0498,0,0.0506,0.0529,0.0568,0.0606,0.0616,0.0634,0.0675,0.0699,0.0726,0.0737,0.0742,0.0735,0.0727,0.0678,0.0626,0.0632,0.0575,0.054,0.0538,0.0515,0.0486,0.0506,0.0537,0.0549,0.0499,0.0499,0.0499,0,0.0529,0.0567,0.0601,0.0613,0.065,0.0669,0.0694,0.0725,0.0774,0.0808,0.0854,0.0823,0.0838,0.0767,0.0683,0.0662,0.0627,0.0592,0.0516,0.0513,0.0544,0.0543,0.0585,0.0546,0.0546,0.0547,0.0547,0,0.056,0.0588,0.0615,0.0636,0.0689,0.0704,0.0771,0.0792,0.0859,0.0943,0.0911,0.097,0.0863,0.0832,0.0727,0.0634,0.0658,0.0527,0.0512,0.0555,0.0556,0.0558,0.0526,0.0545,0.0546,0.0546,0.0546,0,0.0582,0.0597,0.0643,0.0684,0.0701,0.0743,0.0831,0.0895,0.0943,0.1058,0.1085,0.1092,0.1047,0.0928,0.0821,0.0708,0.061,0.0565,0.0613,0.0604,0.0529,0.0495,0.0484,0.0489,0.0477,0.0477,0.0476,0,0.0598,0.0622,0.0677,0.0714,0.0734,0.08,0.0862,0.093,0.102,0.1143,0.1218,0.1207,0.1224,0.105,0.0853,0.0672,0.0621,0.058,0.0538,0.0543,0.0495,0.0482,0.0486,0.0587,0.0587,0.0588,0.0588,0,0.063,0.0645,0.0682,0.0759,0.0822,0.0909,0.1008,0.1094,0.1207,0.1313,0.1441,0.1465,0.1304,0.1168,0.0906,0.0757,0.0606,0.0581,0.0591,0.0589,0.0574,0.0567,0.0573,0.0592,0.0592,0.0592,0.0591,0.0591,0.0652,0.0684,0.0736,0.0812,0.0894,0.1019,0.1107,0.1241,0.14,0.1584,0.1594,0.167,0.1484,0.1138,0.0942,0.0668,0.0622,0.0594,0.0552,0.0539,0.0554,0.0555,0.0553,0.0553,0.0552,0.0552,0.0551,0,0.0682,0.0723,0.0793,0.0892,0.0997,0.1036,0.1212,0.1326,0.1524,0.1694,0.1804,0.1824,0.157,0.1289,0.0918,0.0725,0.0642,0.0615,0.0636,0.0638,0.066,0.0679,0.07,0.07,0.07,0.07,0.07,0.07,0.0698,0.0763,0.0802,0.0964,0.1046,0.1207,0.1313,0.1487,0.1643,0.1886,0.2008,0.2085,0.2001,0.1307,0.0922,0.0781,0.0709,0.0628,0.0589,0.0636,0.0632,0.0629,0.0645,0.0658,0.0658,0.0636,0.0636,0.0635]}],[{"header":{"parameterUnit":"m.s-1","parameterCategory":2,"la1":30.2991,"la2":30.254,"lo1":-89.0895,"lo2":-89.0444,"dy":0.0017,"dx":0.0017,"nx":28,"ny":28,"refTime":"2025-03-17T21:00:00:Z","depth":"2","parameterNumber":2,"parameterNumberName":"U-component_of_CURRENTS"},"data":[0,0,0,0,0,0,0,0,0,0,0,0,0,0,0,0,0,0,0,0,0,0,0,0,0,0,0,0,0,0,0,0,0,0,0,0,0,0,0,0,0,0,0,0,0,0,0,0,0,0,0,0,0,0,0,0,0,0,0.2196,0.2196,0,0.2194,0.2194,0.2194,0.2177,0.2176,0.2176,0.2176,0.2201,0.2202,0.2202,0,0,0,0,0,0,0,0,0,0,0,0,0,0.2206,0.2205,0.2196,0.2196,0.2196,0.2194,0.2194,0.2194,0.2177,0.2176,0.2176,0.2176,0.22,0.2201,0.2203,0,0,0,0,0,0,0,0,0,0,0,0,0,0.2201,0.2205,0.2196,0.2188,0.2188,0.2194,0.2194,0.2194,0.2177,0.2176,0.2176,0.2176,0.22,0.2201,0.2203,0.222,0,0,0.2207,0.2208,0,0,0,0,0,0,0,0,0.2201,0.22,0.2189,0.2189,0.2188,0.2186,0.2206,0.2204,0.2177,0.218,0.2176,0.2175,0.22,0.2201,0.2199,0.2221,0.2222,0.2207,0.2208,0.2209,0.2209,0,0,0,0,0,0,0,0.2202,0.2201,0.2194,0.219,0.2189,0.2193,0.2191,0.2206,0.2191,0.2179,0.2178,0.2181,0.2199,0.2198,0.22,0.2223,0.2207,0.2208,0.2209,0.221,0.2255,0.2255,0,0,0,0,0,0,0.2204,0.2201,0.2194,0.2194,0.2195,0.2193,0.2191,0.2186,0.2191,0.2191,0.2181,0.218,0.2196,0.2198,0.2201,0.2223,0.2209,0.221,0.2211,0.2255,0.2255,0.2255,0,0,0,0,0,0,0.2204,0.2203,0.2194,0.2199,0.2198,0.2193,0.2188,0.2187,0.2185,0.2192,0.2192,0.2181,0.2195,0.2199,0.2206,0.2224,0.221,0.2212,0.2254,0.2255,0.2255,0.2267,0,0,0,0,0,0,0.2204,0.2203,0.2202,0.2199,0.2198,0.2198,0.2188,0.2187,0.2187,0.2186,0.2192,0.2194,0.2195,0.2204,0.2208,0.2225,0.2213,0.2254,0.2254,0.2255,0.2266,0.2267,0.2269,0,0,0,0,0,0.2204,0.2203,0.2202,0.2202,0.2196,0.2198,0.2198,0.2192,0.2188,0.2188,0.2187,0.2193,0.2211,0.2205,0.221,0.2228,0.2253,0.2254,0.2255,0.2265,0.2267,0.2269,0,0,0,0,0,0,0.2207,0.2201,0.22,0.2197,0.2199,0.2196,0.2198,0.2195,0.2194,0.2194,0.2195,0.2197,0.2211,0.2217,0.221,0.2242,0.2235,0.2237,0.2242,0.2244,0.2245,0.2246,0.2214,0,0,0,0,0,0.2209,0.2206,0.2204,0.2203,0.2205,0.2203,0.2204,0.2201,0.22,0.2199,0.2202,0.2209,0.2219,0.2227,0.2235,0.2254,0.2283,0.2269,0.2271,0.2272,0.2275,0.2341,0.2349,0.2258,0.2258,0.2258,0,0,0.221,0.2208,0.2206,0.2204,0.2205,0.2209,0.2202,0.2205,0.2208,0.2204,0.2209,0.2214,0.2223,0.2239,0.2247,0.2246,0.2312,0.2273,0.2274,0.2277,0.2343,0.2352,0.236,0.2259,0.2259,0.2258,0,0,0.2213,0.221,0.2209,0.2211,0.2215,0.2216,0.2218,0.2217,0.2217,0.2224,0.2221,0.2233,0.2248,0.2257,0.2264,0.2282,0.2316,0.2288,0.2302,0.2366,0.2374,0.2382,0.243,0.2442,0.2292,0.2292,0.2292,0,0.2217,0.2211,0.2211,0.2213,0.2215,0.2219,0.2221,0.2226,0.2227,0.2236,0.2228,0.2258,0.2258,0.2288,0.2284,0.2287,0.2326,0.2294,0.237,0.2378,0.2386,0.2433,0.2446,0.2293,0.2293,0.2293,0.2293,0,0.2216,0.2215,0.2217,0.2219,0.2223,0.2227,0.2233,0.2241,0.2244,0.2254,0.2281,0.2285,0.2309,0.2308,0.2296,0.235,0.236,0.2363,0.2367,0.2396,0.2443,0.2457,0.2294,0.2294,0.2293,0.2293,0,0,0.221,0.2215,0.2215,0.2213,0.2225,0.2224,0.2242,0.2258,0.2284,0.229,0.2331,0.2327,0.2344,0.2352,0.2355,0.2392,0.2466,0.2398,0.2401,0.2449,0.2608,0.2532,0.2539,0.2492,0.2495,0.2496,0.2619,0,0.2208,0.2208,0.2214,0.2215,0.2214,0.2228,0.225,0.2269,0.2297,0.2343,0.236,0.2404,0.2361,0.239,0.2417,0.2469,0.2503,0.2432,0.257,0.2573,0.2506,0.2552,0.2303,0.2384,0.2632,0.2634,0.2636,0,0.2197,0.22,0.2199,0.2212,0.2215,0.2223,0.2261,0.2285,0.2354,0.2385,0.2432,0.2466,0.2523,0.2489,0.2585,0.2549,0.2571,0.2596,0.2602,0.2536,0.2521,0.2396,0.2399,0.2658,0.2657,0.2655,0.2653,0,0.2175,0.2183,0.218,0.2182,0.2205,0.2213,0.2236,0.2296,0.2337,0.2433,0.2494,0.2558,0.2617,0.2664,0.2696,0.2665,0.2806,0.278,0.2726,0.2721,0.2536,0.2511,0.2841,0.2841,0.2841,0.2841,0.284,0,0.2159,0.2154,0.2168,0.2164,0.2176,0.2203,0.2244,0.2286,0.2381,0.2449,0.2521,0.2592,0.2667,0.2746,0.2755,0.2788,0.2862,0.2739,0.2753,0.2531,0.2505,0.2759,0.2747,0.2845,0.2844,0.2843,0.2843,0,0.2127,0.2138,0.2131,0.2153,0.2161,0.2171,0.2238,0.2284,0.2383,0.2486,0.253,0.2656,0.2753,0.2812,0.2907,0.2866,0.2908,0.289,0.2614,0.2591,0.2764,0.2753,0.286,0.2859,0.2858,0.2856,0.2856,0,0.2108,0.2103,0.2114,0.2115,0.2121,0.2148,0.2181,0.2271,0.2335,0.2508,0.2563,0.2699,0.2754,0.2867,0.2828,0.285,0.2904,0.263,0.2507,0.2766,0.277,0.276,0.275,0.2272,0.2267,0.2262,0.2259,0,0.2071,0.2076,0.2074,0.2087,0.2101,0.2122,0.2179,0.2226,0.2353,0.2441,0.2557,0.262,0.2704,0.2602,0.2627,0.2597,0.2608,0.2536,0.2914,0.2297,0.2219,0.222,0.2229,0.2218,0.2222,0.2225,0.2227,0.2228,0.2042,0.2033,0.2041,0.2048,0.2069,0.2088,0.2086,0.2157,0.223,0.2312,0.2436,0.2429,0.2446,0.2339,0.2273,0.221,0.2388,0.2268,0.228,0.2297,0.2197,0.212,0.2082,0.2085,0.2088,0.209,0.2093,0,0.1992,0.1999,0.2005,0.2003,0.2003,0.2037,0.208,0.2054,0.2082,0.2145,0.2186,0.1993,0.1918,0.1939,0.1767,0.1765,0.1719,0.1698,0.1612,0.1654,0.1692,0.1558,0.1276,0.1273,0.1271,0.1269,0,0,0.1967,0.1947,0.1952,0.1934,0.194,0.1906,0.1905,0.1873,0.188,0.18,0.1749,0.1847,0.1897,0.1572,0.1522,0.1373,0.1506,0.1314,0.1971,0.1914,0.1948,0.2024,0.1868,0,0,0,0,0]},{"header":{"parameterUnit":"m.s-1","parameterCategory":2,"la1":30.2991,"la2":30.254,"lo1":-89.0895,"lo2":-89.0444,"dy":0.0017,"dx":0.0017,"nx":28,"ny":28,"refTime":"2025-03-17T21:00:00:Z","depth":"2","parameterNumber":3,"parameterNumberName":"V-component_of_CURRENTS"},"data":[0,0,0,0,0,0,0,0,0,0,0,0,0,0,0,0,0,0,0,0,0,0,0,0,0,0,0,0,0,0,0,0,0,0,0,0,0,0,0,0,0,0,0,0,0,0,0,0,0,0,0,0,0,0,0,0,0,0,0.0301,0.0301,0,0.029,0.0289,0.0289,0.0276,0.0276,0.0276,0.0276,0.0255,0.0254,0.0254,0,0,0,0,0,0,0,0,0,0,0,0,0,0.0292,0.0293,0.0301,0.0301,0.0301,0.029,0.0289,0.0289,0.0276,0.0276,0.0276,0.0276,0.0255,0.0254,0.0254,0,0,0,0,0,0,0,0,0,0,0,0,0,0.029,0.0293,0.0301,0.0294,0.0293,0.029,0.0289,0.0289,0.0276,0.0276,0.0276,0.0276,0.0255,0.0254,0.0254,0.0254,0,0,0.0252,0.0251,0,0,0,0,0,0,0,0,0.029,0.029,0.0295,0.0294,0.0293,0.0285,0.0278,0.0277,0.0276,0.0282,0.0276,0.0276,0.0264,0.0263,0.0261,0.0253,0.0252,0.0252,0.0251,0.0251,0.0251,0,0,0,0,0,0,0,0.029,0.029,0.0296,0.0295,0.0294,0.0284,0.0284,0.0278,0.0274,0.0282,0.0281,0.028,0.0264,0.0261,0.026,0.0252,0.0252,0.0251,0.0251,0.025,0.0259,0.026,0,0,0,0,0,0,0.0294,0.0291,0.0296,0.0296,0.0292,0.0285,0.0284,0.0287,0.0274,0.0272,0.0281,0.028,0.0262,0.0261,0.0259,0.0274,0.0251,0.025,0.025,0.0258,0.0259,0.026,0,0,0,0,0,0,0.0294,0.0295,0.0297,0.0293,0.0293,0.0285,0.0289,0.0287,0.0287,0.0274,0.0271,0.0283,0.0262,0.026,0.0265,0.0272,0.025,0.0249,0.0258,0.0259,0.0259,0.0294,0,0,0,0,0,0,0.0294,0.0295,0.0299,0.0293,0.0293,0.03,0.0289,0.0287,0.0287,0.0286,0.0275,0.0272,0.0262,0.0266,0.0264,0.0271,0.0249,0.0257,0.0258,0.0259,0.0292,0.0296,0.0299,0,0,0,0,0,0.0293,0.0302,0.03,0.03,0.0299,0.03,0.03,0.0293,0.0288,0.0291,0.0288,0.0273,0.0272,0.0266,0.0264,0.0271,0.0256,0.0258,0.0259,0.029,0.0295,0.0299,0,0,0,0,0,0,0.03,0.0302,0.0299,0.0307,0.0306,0.0299,0.0302,0.0296,0.0296,0.0296,0.0282,0.028,0.0286,0.0276,0.027,0.0277,0.0261,0.0262,0.0285,0.029,0.0293,0.0302,0.0248,0,0,0,0,0,0.0304,0.0311,0.0309,0.0315,0.0317,0.031,0.031,0.0306,0.0304,0.0303,0.0297,0.0291,0.029,0.0288,0.0284,0.0289,0.0279,0.0292,0.0296,0.0299,0.0305,0.0304,0.0308,0.0264,0.0264,0.0264,0,0,0.0308,0.031,0.0313,0.0317,0.0316,0.0325,0.0309,0.0313,0.0322,0.0301,0.0313,0.0304,0.0294,0.0301,0.0302,0.0294,0.0304,0.0301,0.0303,0.0308,0.0306,0.031,0.0314,0.0265,0.0265,0.0265,0,0,0.0322,0.0322,0.0334,0.0337,0.0339,0.0337,0.034,0.0338,0.0339,0.0348,0.0336,0.0335,0.0332,0.0327,0.0324,0.0346,0.0324,0.0342,0.0367,0.0366,0.0369,0.0372,0.0358,0.0359,0.0344,0.0344,0.0344,0,0.0327,0.0343,0.0337,0.035,0.0358,0.0346,0.0363,0.0362,0.0362,0.037,0.0358,0.0361,0.0346,0.0358,0.0362,0.0354,0.0346,0.035,0.0371,0.0373,0.0376,0.036,0.0361,0.0345,0.0345,0.0345,0.0345,0,0.0352,0.0365,0.0373,0.0388,0.0393,0.0406,0.0406,0.0412,0.0411,0.0411,0.0424,0.0406,0.0411,0.04,0.0385,0.0398,0.0383,0.0375,0.0359,0.0382,0.0364,0.0365,0.0348,0.0347,0.0347,0.0346,0,0,0.0366,0.0388,0.0391,0.0408,0.0417,0.0427,0.0443,0.0459,0.0483,0.047,0.0502,0.0479,0.0471,0.0467,0.0447,0.0437,0.0436,0.0414,0.0413,0.0399,0.0426,0.0409,0.0408,0.0433,0.0434,0.0434,0.0403,0,0.0391,0.0426,0.0429,0.0463,0.0484,0.0482,0.0504,0.0515,0.0523,0.0551,0.0529,0.0553,0.0497,0.051,0.0487,0.0463,0.0441,0.0445,0.0406,0.0405,0.0387,0.0409,0.0385,0.0355,0.0404,0.0404,0.0404,0,0.0419,0.044,0.0478,0.0514,0.0524,0.0541,0.0581,0.0603,0.0628,0.0639,0.0644,0.0637,0.0628,0.0582,0.0529,0.0536,0.048,0.0446,0.0444,0.0419,0.039,0.0342,0.0354,0.0405,0.0405,0.0404,0.0404,0,0.0442,0.0478,0.0512,0.0523,0.0558,0.0576,0.0601,0.063,0.0677,0.0708,0.0753,0.072,0.0736,0.0664,0.0583,0.0563,0.0524,0.0491,0.0415,0.0412,0.0379,0.0373,0.0445,0.0445,0.0445,0.0445,0.0445,0,0.0473,0.0501,0.0526,0.0546,0.0598,0.0611,0.0677,0.0697,0.076,0.0841,0.0809,0.0863,0.076,0.0726,0.0623,0.0529,0.0553,0.0425,0.0409,0.0389,0.0385,0.0419,0.0417,0.0444,0.0444,0.0444,0.0444,0,0.0496,0.051,0.0554,0.0594,0.0611,0.0652,0.0737,0.0798,0.0845,0.0955,0.0981,0.0983,0.0936,0.0819,0.0711,0.0599,0.0503,0.0456,0.0433,0.0415,0.0374,0.0374,0.0368,0.0367,0.0367,0.0366,0.0366,0,0.0512,0.0536,0.0589,0.0625,0.0645,0.0709,0.0771,0.0835,0.0922,0.1038,0.111,0.1095,0.1097,0.092,0.0721,0.0539,0.0512,0.039,0.0342,0.0384,0.0369,0.037,0.0371,0.0304,0.0303,0.0302,0.0302,0,0.0545,0.056,0.0595,0.0671,0.0733,0.0817,0.0915,0.0997,0.1105,0.1203,0.1316,0.1323,0.1152,0.0957,0.0696,0.0557,0.0416,0.0369,0.0436,0.0332,0.0323,0.0309,0.0311,0.0295,0.0296,0.0296,0.0297,0.0297,0.0567,0.0598,0.065,0.0725,0.0806,0.0927,0.1011,0.1133,0.128,0.142,0.1426,0.1418,0.1197,0.0842,0.0617,0.0366,0.0393,0.0278,0.0281,0.0284,0.0287,0.0278,0.0242,0.0242,0.0242,0.0243,0.0243,0,0.0593,0.0638,0.0707,0.0803,0.0902,0.0947,0.1115,0.1204,0.1378,0.1475,0.154,0.1288,0.1075,0.0824,0.0457,0.0253,0.0216,0.0162,0.0165,0.0173,0.018,0.0177,0.0102,0.0101,0.01,0.01,0,0,0.0608,0.0668,0.0706,0.0864,0.095,0.1095,0.1197,0.1331,0.143,0.1488,0.1473,0.1423,0.1145,0.0841,0.0551,0.0341,0.0302,0.0278,0.0412,0.0459,0.0468,0.0265,0.0272,0,0,0,0,0]}],[{"header":{"parameterUnit":"m.s-1","parameterCategory":2,"la1":30.2991,"la2":30.254,"lo1":-89.0895,"lo2":-89.0444,"dy":0.0017,"dx":0.0017,"nx":28,"ny":28,"refTime":"2025-03-17T21:00:00:Z","depth":"4","parameterNumber":2,"parameterNumberName":"U-component_of_CURRENTS"},"data":[0,0,0,0,0,0,0,0,0,0,0,0,0,0,0,0,0,0,0,0,0,0,0,0,0,0,0,0,0,0,0,0,0,0,0,0,0,0,0,0,0,0,0,0,0,0,0,0,0,0,0,0,0,0,0,0,0,0,0.137,0.1371,0,0.1419,0.1419,0.142,0.146,0.1461,0.1461,0.1462,0.1511,0.1512,0.1513,0,0,0,0,0,0,0,0,0,0,0,0,0,0.1311,0.1311,0.137,0.1371,0.1372,0.1419,0.1419,0.142,0.146,0.1461,0.1461,0.1462,0.1511,0.1512,0.1513,0,0,0,0,0,0,0,0,0,0,0,0,0,0.1344,0.1312,0.137,0.1399,0.1402,0.1419,0.1419,0.142,0.146,0.1461,0.1462,0.1462,0.1511,0.1512,0.1513,0.1502,0,0,0.1516,0.1517,0,0,0,0,0,0,0,0,0.1342,0.1346,0.1394,0.1397,0.14,0.1436,0.1417,0.1448,0.146,0.1436,0.1462,0.1463,0.1487,0.149,0.1494,0.1504,0.1507,0.1516,0.1517,0.1518,0.1518,0,0,0,0,0,0,0,0.134,0.1344,0.1388,0.1395,0.1399,0.1409,0.1414,0.1423,0.1454,0.1438,0.1442,0.145,0.1488,0.1493,0.1496,0.1507,0.1516,0.1517,0.1518,0.1519,0.1586,0.1587,0,0,0,0,0,0,0.1336,0.1342,0.1386,0.1389,0.1375,0.1409,0.1416,0.1422,0.1454,0.1461,0.1449,0.1451,0.1491,0.1494,0.1498,0.1559,0.1518,0.1519,0.1519,0.1585,0.1586,0.1588,0,0,0,0,0,0,0.1335,0.134,0.1384,0.1368,0.1375,0.141,0.1417,0.1423,0.1455,0.1463,0.1469,0.1478,0.1492,0.1496,0.1534,0.1558,0.1519,0.152,0.1584,0.1586,0.1587,0.1635,0,0,0,0,0,0,0.1333,0.1339,0.1356,0.1368,0.1376,0.1409,0.1416,0.1423,0.1458,0.1462,0.1489,0.1493,0.1493,0.1533,0.1535,0.1559,0.1521,0.1582,0.1585,0.1587,0.1632,0.1638,0.1643,0,0,0,0,0,0.133,0.1344,0.1356,0.1363,0.1394,0.141,0.1415,0.1441,0.1459,0.1474,0.15,0.1494,0.1548,0.1535,0.1538,0.1562,0.1581,0.1584,0.1586,0.163,0.1637,0.1643,0,0,0,0,0,0,0.1328,0.1349,0.1364,0.1384,0.1405,0.1418,0.1441,0.1456,0.1488,0.1503,0.151,0.1515,0.1558,0.1553,0.1539,0.1588,0.1563,0.1566,0.1595,0.1602,0.1607,0.16,0.1522,0,0,0,0,0,0.1335,0.1353,0.1371,0.1392,0.1405,0.1428,0.1445,0.1462,0.1485,0.1502,0.1522,0.1544,0.1564,0.1579,0.1594,0.162,0.1624,0.1637,0.1643,0.1648,0.1645,0.1689,0.1699,0.1596,0.1596,0.1596,0,0,0.134,0.1356,0.1368,0.1394,0.1415,0.1432,0.1441,0.1473,0.1494,0.1501,0.1548,0.1568,0.1577,0.1611,0.1629,0.1614,0.1678,0.1651,0.1655,0.1649,0.1693,0.1703,0.1712,0.1598,0.1597,0.1597,0,0,0.1349,0.1376,0.1391,0.1409,0.1444,0.1456,0.147,0.15,0.1525,0.1565,0.1579,0.1616,0.1645,0.1658,0.1666,0.171,0.1709,0.1718,0.1741,0.1784,0.1793,0.1801,0.1815,0.1823,0.1719,0.1719,0.1719,0,0.136,0.1377,0.1399,0.1418,0.1437,0.1468,0.1487,0.1511,0.1553,0.1577,0.1588,0.1655,0.1664,0.1703,0.1719,0.1722,0.174,0.1715,0.1792,0.18,0.1807,0.1819,0.1828,0.1722,0.1721,0.1721,0.1721,0,0.1368,0.1396,0.1408,0.144,0.1463,0.1488,0.1518,0.1554,0.1591,0.1615,0.1678,0.1702,0.1742,0.1751,0.1748,0.1803,0.1797,0.1798,0.1775,0.1821,0.183,0.1839,0.1725,0.1724,0.1724,0.1723,0,0,0.1357,0.1405,0.1413,0.1434,0.1479,0.1495,0.154,0.1582,0.162,0.1672,0.1725,0.1763,0.1793,0.1803,0.1816,0.1845,0.1907,0.1845,0.1846,0.1858,0.1994,0.1854,0.1849,0.1933,0.1935,0.1937,0.1979,0,0.1361,0.1393,0.1419,0.1458,0.1476,0.1521,0.1558,0.1606,0.1652,0.1712,0.1757,0.1813,0.1808,0.1844,0.1876,0.1905,0.1933,0.1894,0.1948,0.1949,0.1818,0.1855,0.1943,0.1985,0.1987,0.1988,0.1989,0,0.1354,0.1379,0.1415,0.1469,0.1483,0.1517,0.1586,0.1625,0.1707,0.1746,0.1814,0.1858,0.192,0.1913,0.1985,0.1967,0.1984,0.1996,0.1998,0.1853,0.1824,0.1931,0.2004,0.2003,0.2002,0.2001,0.2,0,0.1319,0.1374,0.1404,0.1423,0.1488,0.1526,0.1571,0.1645,0.1682,0.1784,0.1832,0.1909,0.1962,0.2009,0.2036,0.203,0.2101,0.2096,0.1981,0.1971,0.2065,0.2056,0.2146,0.2146,0.2146,0.2146,0.2146,0,0.1295,0.1324,0.1398,0.1414,0.146,0.1519,0.1576,0.1632,0.1715,0.1759,0.1859,0.1902,0.1994,0.2046,0.2063,0.2037,0.213,0.1982,0.1975,0.2082,0.2075,0.207,0.2061,0.2147,0.2147,0.2147,0.2147,0,0.1247,0.1295,0.1335,0.1416,0.1444,0.1483,0.1568,0.1599,0.1699,0.1764,0.1806,0.1916,0.1982,0.2045,0.2109,0.2049,0.2053,0.2022,0.2121,0.2119,0.1887,0.188,0.1897,0.1892,0.1888,0.1885,0.1882,0,0.122,0.1237,0.1326,0.1346,0.1388,0.145,0.1482,0.1579,0.1608,0.1749,0.177,0.1882,0.1942,0.1916,0.1992,0.201,0.1988,0.1962,0.1925,0.1871,0.1864,0.1863,0.1861,0.1876,0.1875,0.1874,0.1873,0,0.1168,0.1216,0.1249,0.1289,0.1331,0.1358,0.1418,0.1423,0.1532,0.165,0.1686,0.1726,0.1789,0.1829,0.185,0.1863,0.1963,0.1921,0.1929,0.1894,0.1846,0.1843,0.1845,0.186,0.1862,0.1863,0.1864,0,0.1136,0.1146,0.1192,0.1209,0.1255,0.1241,0.1284,0.1313,0.1357,0.1515,0.1522,0.1652,0.1763,0.1753,0.1779,0.1773,0.1751,0.1678,0.1698,0.1714,0.1634,0.1545,0.1458,0,0,0,0,0,0.1094,0.1084,0.1098,0.1104,0.1138,0.116,0.1224,0.1267,0.138,0.1363,0.1434,0.1491,0.1533,0.1598,0.1559,0.1701,0.1755,0.1645,0.168,0.1785,0.1801,0.1724,0,0,0,0,0,0,0.1063,0.1083,0.1067,0.1002,0.0985,0.1006,0.1039,0.1116,0.1109,0.1243,0.1279,0.1391,0.1462,0.1546,0.1531,0.1549,0.1535,0.1729,0.1724,0.1777,0.1791,0.1803,0.173,0,0,0,0,0]},{"header":{"parameterUnit":"m.s-1","parameterCategory":2,"la1":30.2991,"la2":30.254,"lo1":-89.0895,"lo2":-89.0444,"dy":0.0017,"dx":0.0017,"nx":28,"ny":28,"refTime":"2025-03-17T21:00:00:Z","depth":"4","parameterNumber":3,"parameterNumberName":"V-component_of_CURRENTS"},"data":[0,0,0,0,0,0,0,0,0,0,0,0,0,0,0,0,0,0,0,0,0,0,0,0,0,0,0,0,0,0,0,0,0,0,0,0,0,0,0,0,0,0,0,0,0,0,0,0,0,0,0,0,0,0,0,0,0,0,0.007,0.007,0,0.0069,0.0069,0.0069,0.0067,0.0067,0.0067,0.0067,0.0044,0.0044,0.0043,0,0,0,0,0,0,0,0,0,0,0,0,0,0.0055,0.0056,0.007,0.007,0.007,0.0069,0.0069,0.0069,0.0067,0.0067,0.0067,0.0067,0.0045,0.0044,0.0043,0,0,0,0,0,0,0,0,0,0,0,0,0,0.0059,0.0056,0.007,0.0069,0.0069,0.0069,0.0069,0.0069,0.0067,0.0067,0.0067,0.0067,0.0045,0.0044,0.0043,0.0039,0,0,0.0041,0.004,0,0,0,0,0,0,0,0,0.0058,0.0059,0.0069,0.0069,0.0069,0.0068,0.0056,0.0058,0.0067,0.0067,0.0067,0.0067,0.0051,0.0049,0.0049,0.0038,0.0037,0.0041,0.004,0.004,0.0039,0,0,0,0,0,0,0,0.0058,0.0059,0.0069,0.0069,0.0069,0.0064,0.0064,0.0056,0.0058,0.0067,0.0067,0.0068,0.005,0.005,0.0049,0.0036,0.0041,0.004,0.0039,0.0039,0.0043,0.0044,0,0,0,0,0,0,0.006,0.0059,0.0069,0.0069,0.0064,0.0064,0.0065,0.0068,0.0059,0.0058,0.0068,0.0067,0.0051,0.005,0.0048,0.0063,0.004,0.0039,0.0038,0.0043,0.0043,0.0044,0,0,0,0,0,0,0.006,0.0061,0.0069,0.0064,0.0065,0.0065,0.0068,0.0068,0.0072,0.006,0.0058,0.0072,0.0051,0.0049,0.0056,0.0061,0.0038,0.0038,0.0042,0.0043,0.0044,0.008,0,0,0,0,0,0,0.0059,0.0061,0.0064,0.0064,0.0065,0.0074,0.0068,0.0068,0.0072,0.0072,0.0063,0.006,0.0051,0.0058,0.0055,0.006,0.0037,0.0041,0.0042,0.0043,0.0078,0.0082,0.0085,0,0,0,0,0,0.0059,0.0064,0.0065,0.0066,0.007,0.0074,0.0074,0.0073,0.0072,0.0076,0.0078,0.0061,0.0063,0.0058,0.0055,0.0059,0.0041,0.0042,0.0043,0.0076,0.0081,0.0085,0,0,0,0,0,0,0.0059,0.0065,0.0065,0.0072,0.0075,0.0074,0.0077,0.0077,0.0081,0.0083,0.0072,0.007,0.0078,0.0065,0.006,0.0064,0.0047,0.0048,0.0073,0.0078,0.0081,0.0088,0.0036,0,0,0,0,0,0.0061,0.0068,0.0071,0.0076,0.0079,0.0079,0.0081,0.0082,0.0084,0.0086,0.0083,0.0079,0.008,0.0078,0.0075,0.0077,0.0061,0.0077,0.0081,0.0085,0.0089,0.008,0.0083,0.0049,0.0049,0.0049,0,0,0.0062,0.0066,0.0069,0.0077,0.0079,0.0089,0.008,0.0087,0.0097,0.0082,0.0097,0.0093,0.0085,0.0093,0.0094,0.0083,0.0084,0.0086,0.0089,0.0091,0.0082,0.0085,0.0088,0.005,0.0049,0.0049,0,0,0.0069,0.0072,0.0081,0.0087,0.0094,0.0096,0.01,0.0105,0.011,0.0123,0.0118,0.0122,0.0119,0.0118,0.0115,0.0137,0.0107,0.0132,0.0152,0.0144,0.0147,0.0149,0.0125,0.0125,0.013,0.0131,0.0131,0,0.007,0.0084,0.0084,0.0096,0.0105,0.0102,0.0117,0.0121,0.0129,0.0139,0.0132,0.0142,0.0132,0.0144,0.0152,0.0145,0.013,0.0136,0.0149,0.0151,0.0152,0.0127,0.0126,0.0132,0.0132,0.0132,0.0132,0,0.0086,0.0098,0.0105,0.0122,0.013,0.0142,0.0149,0.0161,0.0166,0.0171,0.0188,0.018,0.0186,0.018,0.0173,0.0181,0.0163,0.0157,0.0137,0.0158,0.013,0.0128,0.0135,0.0134,0.0134,0.0133,0,0,0.0089,0.0112,0.0115,0.0132,0.0147,0.0158,0.0177,0.0197,0.0217,0.0218,0.0242,0.0239,0.0235,0.0232,0.022,0.021,0.0203,0.019,0.0188,0.0164,0.0174,0.0155,0.0151,0.02,0.02,0.02,0.0146,0,0.0104,0.0132,0.014,0.0171,0.0189,0.0198,0.0221,0.0238,0.0248,0.027,0.0263,0.028,0.0254,0.0261,0.0247,0.0219,0.0203,0.0218,0.0158,0.0156,0.0136,0.0151,0.0201,0.0145,0.0144,0.0144,0.0144,0,0.0121,0.0139,0.017,0.0207,0.0216,0.0236,0.0275,0.0295,0.0319,0.0327,0.0336,0.0332,0.0325,0.0302,0.0254,0.0264,0.0224,0.0194,0.0191,0.0162,0.0135,0.0121,0.0141,0.0141,0.0141,0.0141,0.0142,0,0.0129,0.0163,0.019,0.0202,0.0239,0.0262,0.0288,0.0316,0.0347,0.0368,0.0391,0.0373,0.0374,0.0326,0.0261,0.0261,0.02,0.0191,0.0132,0.0129,0.0145,0.0143,0.0158,0.0158,0.0158,0.0159,0.0159,0,0.0144,0.0168,0.0199,0.0217,0.0262,0.0283,0.0333,0.0354,0.0394,0.0439,0.0426,0.0445,0.0382,0.0342,0.0275,0.0195,0.0207,0.0138,0.012,0.016,0.0161,0.0143,0.0142,0.0157,0.0157,0.0157,0.0158,0,0.0149,0.0167,0.0205,0.0249,0.0267,0.0303,0.0369,0.0407,0.0438,0.0496,0.051,0.0499,0.0451,0.0374,0.0288,0.0217,0.0141,0.0107,0.0146,0.013,0.007,0.0071,0.0042,0.0041,0.004,0.004,0.0039,0,0.0154,0.0172,0.0227,0.0255,0.0279,0.0333,0.0377,0.0425,0.047,0.0529,0.0561,0.0537,0.0517,0.0376,0.0284,0.0149,0.0128,0.0069,0.008,0.0075,0.006,0.0063,0.0066,0.0038,0.0037,0.0037,0.0037,0,0.0164,0.0183,0.0214,0.027,0.0319,0.0379,0.0446,0.0481,0.0548,0.0577,0.0605,0.0551,0.0494,0.0383,0.0272,0.0176,0.0098,0.006,0.0061,0.0071,0.0069,0.0056,0.0059,0.0034,0.0035,0.0035,0.0035,0,0.0172,0.0193,0.0232,0.0281,0.0343,0.0411,0.0447,0.0508,0.0555,0.0623,0.0624,0.0576,0.0545,0.0396,0.0297,0.0198,0.0175,0.0123,0.0121,0.0123,0.016,0.0171,0.0155,0,0,0,0,0,0.0178,0.0197,0.0241,0.0303,0.0366,0.0406,0.0488,0.0525,0.0587,0.0613,0.0624,0.0578,0.0452,0.0397,0.0297,0.027,0.0143,0.0145,0.0079,0.0018,0.0021,0.005,0,0,0,0,0,0,0.018,0.0216,0.0233,0.0306,0.0353,0.0434,0.0487,0.0535,0.0551,0.0595,0.0533,0.0527,0.0405,0.0512,0.0288,0.0261,0.0197,0.0097,0.0094,0.0016,0.0019,0.0022,0.0053,0,0,0,0,0]}]]